Tiempo cada hora Aberchirder

Hoy, 24 Octubre, Sábado

Tiempo Temperatura Precipitaciones Viento Presión Humedad
00:00 +3°C° 0 mm 4 mps 737 mmHg 89%
01:00 +3°C° 0 mm 5 mps 736 mmHg 87%
02:00 +3°C° 0 mm 6 mps 734 mmHg 85%
03:00 +4°C° 0 mm 7 mps 733 mmHg 83%
04:00 +5°C° 0.1 mm 9 mps 732 mmHg 85%
05:00 +5°C° 0.1 mm 10 mps 731 mmHg 86%
06:00 +5°C° 0.1 mm 12 mps 730 mmHg 88%
07:00 +6°C° 0.4 mm 11 mps 729 mmHg 88%
08:00 +7°C° 0.4 mm 10 mps 729 mmHg 89%
09:00 +7°C° 0.4 mm 9 mps 729 mmHg 89%
10:00 +8°C° 0.5 mm 7 mps 729 mmHg 86%
11:00 +9°C° 0.5 mm 6 mps 729 mmHg 84%
12:00 +10°C° 0.5 mm 4 mps 729 mmHg 81%
13:00 +9°C° 0 mm 5 mps 729 mmHg 81%
14:00 +8°C° 0 mm 5 mps 728 mmHg 81%
15:00 +8°C° 0 mm 5 mps 728 mmHg 81%
16:00 +7°C° 0 mm 5 mps 728 mmHg 82%
17:00 +5°C° 0 mm 6 mps 728 mmHg 83%
18:00 +4°C° 0 mm 6 mps 728 mmHg 84%
19:00 +5°C° 0 mm 5 mps 728 mmHg 85%
20:00 +3°C° 0 mm 5 mps 728 mmHg 86%
21:00 +3°C° 0 mm 5 mps 728 mmHg 87%
22:00 +3°C° 0 mm 4 mps 728 mmHg 88%
23:00 +3°C° 0 mm 4 mps 728 mmHg 89%

Mañana, 25 Octubre, Domingo

Tiempo Temperatura Precipitaciones Viento Presión Humedad
00:00 +3°C° 0 mm 4 mps 728 mmHg 89%
01:00 +3°C° 0 mm 4 mps 727 mmHg 89%
02:00 +1°C° 0 mm 4 mps 727 mmHg 89%
03:00 +1°C° 0 mm 4 mps 727 mmHg 89%
04:00 +1°C° 0 mm 5 mps 726 mmHg 89%
05:00 +1°C° 0 mm 5 mps 726 mmHg 89%
06:00 +2°C° 0 mm 5 mps 726 mmHg 89%
07:00 +2°C° 0 mm 6 mps 726 mmHg 87%
08:00 +3°C° 0 mm 6 mps 726 mmHg 85%
09:00 +4°C° 0 mm 6 mps 726 mmHg 84%
10:00 +5°C° 0 mm 7 mps 726 mmHg 80%
11:00 +6°C° 0 mm 7 mps 726 mmHg 76%
12:00 +8°C° 0 mm 7 mps 726 mmHg 72%
13:00 +6°C° 0 mm 7 mps 726 mmHg 73%
14:00 +7°C° 0 mm 6 mps 726 mmHg 74%
15:00 +7°C° 0 mm 6 mps 726 mmHg 75%
16:00 +7°C° 0 mm 6 mps 727 mmHg 77%
17:00 +5°C° 0 mm 6 mps 727 mmHg 78%
18:00 +4°C° 0 mm 6 mps 727 mmHg 80%
19:00 +4°C° 0 mm 6 mps 728 mmHg 81%
20:00 +4°C° 0 mm 6 mps 728 mmHg 83%
21:00 +4°C° 0 mm 6 mps 728 mmHg 85%
22:00 +3°C° 0 mm 6 mps 728 mmHg 85%
23:00 +3°C° 0 mm 6 mps 728 mmHg 85%

Pasado mañana, 26 Octubre, Lunes

Tiempo Temperatura Precipitaciones Viento Presión Humedad
00:00 +3°C° 0 mm 5 mps 728 mmHg 86%
01:00 +3°C° 0 mm 5 mps 728 mmHg 86%
02:00 +4°C° 0 mm 6 mps 728 mmHg 86%
03:00 +4°C° 0 mm 6 mps 728 mmHg 86%
04:00 +4°C° 0 mm 6 mps 728 mmHg 87%
05:00 +4°C° 0 mm 6 mps 728 mmHg 87%
06:00 +5°C° 0 mm 6 mps 728 mmHg 88%
07:00 +6°C° 0 mm 5 mps 728 mmHg 88%
08:00 +6°C° 0 mm 5 mps 728 mmHg 88%
09:00 +6°C° 0 mm 4 mps 728 mmHg 88%
10:00 +7°C° 0 mm 4 mps 728 mmHg 84%
11:00 +8°C° 0 mm 4 mps 729 mmHg 80%
12:00 +10°C° 0 mm 4 mps 729 mmHg 75%
13:00 +10°C° 0.1 mm 4 mps 729 mmHg 78%
14:00 +10°C° 0.1 mm 3 mps 729 mmHg 80%
15:00 +9°C° 0.1 mm 3 mps 729 mmHg 82%
16:00 +8°C° 0 mm 2 mps 730 mmHg 85%
17:00 +7°C° 0 mm 2 mps 730 mmHg 87%
18:00 +7°C° 0 mm 1 mps 731 mmHg 90%
19:00 +7°C° 0 mm 1 mps 731 mmHg 90%
20:00 +6°C° 0 mm 1 mps 731 mmHg 91%
21:00 +6°C° 0 mm 1 mps 731 mmHg 91%
22:00 +6°C° 0 mm 1 mps 732 mmHg 91%
23:00 +5°C° 0 mm 2 mps 732 mmHg 92%

, 27 Octubre, Martes

Tiempo Temperatura Precipitaciones Viento Presión Humedad
00:00 +4°C° 0 mm 2 mps 732 mmHg 92%
01:00 +4°C° 0 mm 2 mps 732 mmHg 92%
02:00 +4°C° 0 mm 2 mps 732 mmHg 92%
03:00 +4°C° 0 mm 2 mps 732 mmHg 92%
04:00 +4°C° 0 mm 2 mps 732 mmHg 92%
05:00 +5°C° 0 mm 1 mps 732 mmHg 92%
06:00 +5°C° 0 mm 1 mps 731 mmHg 92%
07:00 +4°C° 0 mm 2 mps 731 mmHg 91%
08:00 +5°C° 0 mm 2 mps 731 mmHg 90%
09:00 +4°C° 0 mm 3 mps 731 mmHg 89%
10:00 +5°C° 0 mm 3 mps 731 mmHg 86%
11:00 +7°C° 0 mm 4 mps 730 mmHg 82%
12:00 +8°C° 0 mm 5 mps 730 mmHg 79%
13:00 +7°C° 0 mm 5 mps 729 mmHg 81%
14:00 +7°C° 0 mm 6 mps 729 mmHg 83%
15:00 +6°C° 0 mm 7 mps 728 mmHg 84%
16:00 +6°C° 0 mm 7 mps 728 mmHg 85%
17:00 +5°C° 0 mm 7 mps 727 mmHg 86%
18:00 +5°C° 0 mm 7 mps 726 mmHg 87%
19:00 +5°C° 0.7 mm 6 mps 726 mmHg 90%
20:00 +7°C° 0.7 mm 6 mps 726 mmHg 93%
21:00 +7°C° 0.7 mm 6 mps 725 mmHg 97%
22:00 +7°C° 0.8 mm 6 mps 725 mmHg 95%
23:00 +5°C° 0.8 mm 6 mps 725 mmHg 93%

27 Octubre, Martes

Tiempo Temperatura Precipitaciones Viento Presión Humedad
00:00 +4°C° 0 mm 2 mps 732 mmHg 92%
01:00 +4°C° 0 mm 2 mps 732 mmHg 92%
02:00 +4°C° 0 mm 2 mps 732 mmHg 92%
03:00 +4°C° 0 mm 2 mps 732 mmHg 92%
04:00 +4°C° 0 mm 2 mps 732 mmHg 92%
05:00 +5°C° 0 mm 1 mps 732 mmHg 92%
06:00 +5°C° 0 mm 1 mps 731 mmHg 92%
07:00 +4°C° 0 mm 2 mps 731 mmHg 91%
08:00 +5°C° 0 mm 2 mps 731 mmHg 90%
09:00 +4°C° 0 mm 3 mps 731 mmHg 89%
10:00 +5°C° 0 mm 3 mps 731 mmHg 86%
11:00 +7°C° 0 mm 4 mps 730 mmHg 82%
12:00 +8°C° 0 mm 5 mps 730 mmHg 79%
13:00 +7°C° 0 mm 5 mps 729 mmHg 81%
14:00 +7°C° 0 mm 6 mps 729 mmHg 83%
15:00 +6°C° 0 mm 7 mps 728 mmHg 84%
16:00 +6°C° 0 mm 7 mps 728 mmHg 85%
17:00 +5°C° 0 mm 7 mps 727 mmHg 86%
18:00 +5°C° 0 mm 7 mps 726 mmHg 87%
19:00 +5°C° 0.7 mm 6 mps 726 mmHg 90%
20:00 +7°C° 0.7 mm 6 mps 726 mmHg 93%
21:00 +7°C° 0.7 mm 6 mps 725 mmHg 97%
22:00 +7°C° 0.8 mm 6 mps 725 mmHg 95%
23:00 +5°C° 0.8 mm 6 mps 725 mmHg 93%

28 Octubre, Miércoles

Tiempo Temperatura Precipitaciones Viento Presión Humedad
00:00 +5°C° 0.8 mm 6 mps 724 mmHg 92%
01:00 +5°C° 0.2 mm 7 mps 724 mmHg 89%
02:00 +4°C° 0.2 mm 7 mps 724 mmHg 87%
03:00 +2°C° 0.2 mm 8 mps 723 mmHg 85%
04:00 +3°C° 0 mm 7 mps 723 mmHg 86%
05:00 +2°C° 0 mm 6 mps 723 mmHg 88%
06:00 +1°C° 0 mm 5 mps 723 mmHg 89%
07:00 +2°C° 0 mm 5 mps 722 mmHg 89%
08:00 +3°C° 0 mm 5 mps 722 mmHg 89%
09:00 +5°C° 0 mm 4 mps 722 mmHg 89%
10:00 +6°C° 0 mm 5 mps 722 mmHg 87%
11:00 +7°C° 0 mm 6 mps 722 mmHg 85%
12:00 +8°C° 0 mm 7 mps 723 mmHg 83%
13:00 +8°C° 0.1 mm 7 mps 722 mmHg 83%
14:00 +8°C° 0.1 mm 7 mps 722 mmHg 83%
15:00 +7°C° 0.1 mm 8 mps 722 mmHg 83%
16:00 +7°C° 0.1 mm 8 mps 721 mmHg 85%
17:00 +8°C° 0.1 mm 7 mps 721 mmHg 86%
18:00 +8°C° 0.1 mm 7 mps 721 mmHg 87%
19:00 +6°C° 0 mm 7 mps 721 mmHg 88%
20:00 +7°C° 0 mm 6 mps 721 mmHg 89%
21:00 +7°C° 0 mm 6 mps 721 mmHg 90%
22:00 +7°C° 0.5 mm 4 mps 721 mmHg 92%
23:00 +8°C° 0.5 mm 3 mps 722 mmHg 93%

29 Octubre, Jueves

Tiempo Temperatura Precipitaciones Viento Presión Humedad
00:00 +8°C° 0.5 mm 2 mps 722 mmHg 95%
01:00 +8°C° 1 mm 3 mps 723 mmHg 93%
02:00 +7°C° 1 mm 4 mps 724 mmHg 92%
03:00 +7°C° 1 mm 6 mps 724 mmHg 91%
04:00 +5°C° 0.2 mm 6 mps 725 mmHg 90%
05:00 +6°C° 0.2 mm 5 mps 726 mmHg 89%
06:00 +5°C° 0.2 mm 5 mps 727 mmHg 89%
07:00 +5°C° 0 mm 5 mps 727 mmHg 88%
08:00 +6°C° 0 mm 4 mps 727 mmHg 87%
09:00 +6°C° 0 mm 4 mps 728 mmHg 87%
10:00 +7°C° 0.1 mm 4 mps 727 mmHg 86%
11:00 +7°C° 0.1 mm 4 mps 727 mmHg 85%
12:00 +8°C° 0.1 mm 4 mps 727 mmHg 84%
13:00 +7°C° 0.2 mm 4 mps 727 mmHg 85%
14:00 +7°C° 0.2 mm 4 mps 727 mmHg 87%
15:00 +7°C° 0.2 mm 4 mps 726 mmHg 89%
16:00 +6°C° 0 mm 4 mps 726 mmHg 89%
17:00 +6°C° 0 mm 4 mps 726 mmHg 90%
18:00 +5°C° 0 mm 4 mps 726 mmHg 91%
19:00 +5°C° 0 mm 4 mps 726 mmHg 91%
20:00 +6°C° 0 mm 5 mps 726 mmHg 90%
21:00 +6°C° 0 mm 5 mps 726 mmHg 89%
22:00 +5°C° 0 mm 6 mps 727 mmHg 87%
23:00 +5°C° 0 mm 7 mps 727 mmHg 85%
Mostrar más

Necesitamos Su Consentimiento

Meteoprog y nuestros Proveedores de Servicios pueden almacenar y acceder a sus datos personales como cookies, identificadores de dispositivo u otras tecnologías similares de su dispositivo y procesar dichos datos para personalizar contenido y anuncios, además de ofrecer funciones de redes sociales y analizar el tráfico.

  • Almacenar y/o acceder a información en su dispositivo

    Se puede almacenar o acceder a cookies, identificadores de dispositivo u otra información de su dispositivo para los fines anteriormente indicados.

  • Anuncios y contenido personalizados, medición de anuncios y contenido, percepciones del público, y desarrollo de productos

    Los anuncios y el contenido pueden personalizarse en base a su perfil. Se pueden añadir más datos para personalizar mejor los anuncios y contenidos. Se puede medir el rendimiento de los anuncios y contenidos. Se puede obtener la percepción sobre el público que ha visto los anuncios y contenidos. Dichos datos pueden usarse para desarrollar o mejorar la experiencia del usuario, sistemas y software.

Al hacer clic en ‘Estoy De Acuerdo’ usted permitirá el uso de las cookies, identificadores de dispositivo, balizas web u otras tecnologías similares indicadas. Su configuración puede cambiarse desde el navegador de su dispositivo.

Para ciertos fines, los intereses legítimos pueden ser considerados por encima del consentimiento. Puede leer más sobre ello en nuestra Política de Privacidad y Cookies.